Tracking 17264 objects as of 2-September-2015
HD Live streaming from Space Station

Track Soyuz TMA-18M
and Space Station

TURKSAT 2A

Track TURKSAT 2A now!
TURKSAT 2A is classified as:


NORAD ID: 26666
Int'l Code: 2001-002A
Perigee: 35,777.8 km
Apogee: 35,808.1 km
Inclination: 0.1 °
Period: 1,436.1 minutes
Semi major axis: 42163 km
RCS: 3.9 m2 (large)
Launch date: January 10, 2001
Source: Turkey (TURK)

32 Ku-band transponders; direct-to-home voice, video, and data transmissions to countries between central Europe and the Indian subcontinent.
Your satellite tracking list
Your tracking list is empty





NASA's NSSDC Master Catalog

Two Line Element Set (TLE):
1 26666U 01002A   15243.71117785  .00000120  00000-0  10000-3 0  9998
2 26666   0.0583  11.6987 0003594 131.1127 134.7777  1.00274554 53623

Source of the keplerian elements: AFSPC

N2YO: 208